User: anonymous
Location: Unspecified
(0.0000°N, 0.0000°E)
Time: 09:31:20
(UTC+02:00)
Language:

Cosmos 1758 - Orbit

View from above orbital plane
View from above orbital plane
View from above satellite
View from above satellite

Ground track
Ground track

The orbit data is extracted from the following two-line orbital elements,

1 16791U 86046A   14243.69557102  .00001545  00000-0  11794-3 0  1135
2 16791 082.4718 304.7591 0016448 318.9513 041.0472 15.01238116532352
Epoch (UTC): 31 August 2014 16:41:37
Eccentricity: 0.0016448
inclination: 82.4718°
perigee height: 551 km
apogee height: 574 km
right ascension of ascending node: 304.7591°
argument of perigee: 318.9513°
revolutions per day: 15.01238116
mean anomaly at epoch: 41.0472°
orbit number at epoch: 53235

The dashed part of the orbit path shows where the satellite is in the earth's shadow,  

DLR